Previsão horária em Centralnyy

Hoje, 2 Agosto, Segunda-feira

Tempo Temperatura Precipitação Vento Pressão Humidade
00:00 +24°C° 0 mm 2 m/s 742 mmHg 53%
01:00 +23°C° 0 mm 2 m/s 741 mmHg 55%
02:00 +23°C° 0 mm 2 m/s 741 mmHg 57%
03:00 +21°C° 0 mm 2 m/s 741 mmHg 59%
04:00 +23°C° 0 mm 2 m/s 741 mmHg 61%
05:00 +22°C° 0 mm 3 m/s 741 mmHg 62%
06:00 +22°C° 0 mm 3 m/s 741 mmHg 63%
07:00 +25°C° 0.1 mm 3 m/s 741 mmHg 57%
08:00 +27°C° 0.1 mm 4 m/s 741 mmHg 50%
09:00 +30°C° 0.1 mm 4 m/s 741 mmHg 44%
10:00 +32°C° 0 mm 5 m/s 741 mmHg 40%
11:00 +34°C° 0 mm 5 m/s 741 mmHg 36%
12:00 +35°C° 0 mm 6 m/s 740 mmHg 32%
13:00 +36°C° 0 mm 6 m/s 740 mmHg 30%
14:00 +36°C° 0 mm 6 m/s 740 mmHg 28%
15:00 +38°C° 0 mm 6 m/s 739 mmHg 26%
16:00 +36°C° 0 mm 6 m/s 739 mmHg 29%
17:00 +35°C° 0 mm 5 m/s 738 mmHg 31%
18:00 +34°C° 0 mm 5 m/s 738 mmHg 33%
19:00 +32°C° 0 mm 4 m/s 738 mmHg 38%
20:00 +29°C° 0 mm 3 m/s 738 mmHg 43%
21:00 +27°C° 0 mm 3 m/s 738 mmHg 48%
22:00 +26°C° 0.1 mm 4 m/s 738 mmHg 55%
23:00 +25°C° 0.1 mm 5 m/s 738 mmHg 61%

Amanhã, 3 Agosto, Terça-feira

Tempo Temperatura Precipitação Vento Pressão Humidade
00:00 +23°C° 0.1 mm 7 m/s 739 mmHg 68%
01:00 +22°C° 0 mm 5 m/s 739 mmHg 73%
02:00 +21°C° 0 mm 4 m/s 739 mmHg 79%
03:00 +20°C° 0 mm 3 m/s 739 mmHg 84%
04:00 +20°C° 0 mm 3 m/s 739 mmHg 83%
05:00 +20°C° 0 mm 3 m/s 739 mmHg 83%
06:00 +20°C° 0 mm 3 m/s 739 mmHg 82%
07:00 +21°C° 0 mm 3 m/s 740 mmHg 78%
08:00 +22°C° 0 mm 3 m/s 740 mmHg 74%
09:00 +24°C° 0 mm 3 m/s 740 mmHg 69%
10:00 +25°C° 0.2 mm 3 m/s 740 mmHg 66%
11:00 +26°C° 0.2 mm 3 m/s 741 mmHg 63%
12:00 +27°C° 0.2 mm 3 m/s 741 mmHg 59%
13:00 +27°C° 0.4 mm 3 m/s 741 mmHg 58%
14:00 +27°C° 0.4 mm 4 m/s 741 mmHg 57%
15:00 +27°C° 0.4 mm 4 m/s 741 mmHg 56%
16:00 +26°C° 0 mm 4 m/s 741 mmHg 56%
17:00 +26°C° 0 mm 4 m/s 741 mmHg 56%
18:00 +25°C° 0 mm 4 m/s 740 mmHg 57%
19:00 +23°C° 0 mm 4 m/s 741 mmHg 59%
20:00 +22°C° 0 mm 3 m/s 741 mmHg 62%
21:00 +21°C° 0 mm 3 m/s 742 mmHg 64%
22:00 +20°C° 0 mm 3 m/s 742 mmHg 66%
23:00 +19°C° 0 mm 2 m/s 742 mmHg 68%

Depois de amanhã, 4 Agosto, Quarta-feira

Tempo Temperatura Precipitação Vento Pressão Humidade
00:00 +18°C° 0 mm 2 m/s 743 mmHg 70%
01:00 +18°C° 0 mm 2 m/s 743 mmHg 73%
02:00 +17°C° 0 mm 2 m/s 743 mmHg 75%
03:00 +17°C° 0 mm 2 m/s 743 mmHg 78%
04:00 +17°C° 0 mm 2 m/s 743 mmHg 76%
05:00 +17°C° 0 mm 2 m/s 744 mmHg 74%
06:00 +17°C° 0 mm 2 m/s 744 mmHg 73%
07:00 +19°C° 0 mm 2 m/s 744 mmHg 65%
08:00 +20°C° 0 mm 2 m/s 745 mmHg 56%
09:00 +22°C° 0 mm 3 m/s 745 mmHg 48%
10:00 +24°C° 0 mm 3 m/s 745 mmHg 43%
11:00 +26°C° 0 mm 4 m/s 745 mmHg 37%
12:00 +27°C° 0 mm 4 m/s 745 mmHg 31%
13:00 +27°C° 0 mm 4 m/s 745 mmHg 31%
14:00 +27°C° 0 mm 4 m/s 745 mmHg 31%
15:00 +27°C° 0 mm 4 m/s 745 mmHg 31%
16:00 +26°C° 0 mm 4 m/s 745 mmHg 34%
17:00 +25°C° 0 mm 4 m/s 745 mmHg 36%
18:00 +25°C° 0 mm 4 m/s 745 mmHg 39%
19:00 +22°C° 0 mm 3 m/s 745 mmHg 44%
20:00 +20°C° 0 mm 2 m/s 745 mmHg 49%
21:00 +18°C° 0 mm 2 m/s 745 mmHg 54%
22:00 +18°C° 0 mm 2 m/s 746 mmHg 55%
23:00 +18°C° 0 mm 1 m/s 746 mmHg 57%

5 Agosto, Quinta-feira

Tempo Temperatura Precipitação Vento Pressão Humidade
00:00 +18°C° 0 mm 1 m/s 746 mmHg 59%
01:00 +16°C° 0 mm 1 m/s 746 mmHg 60%
02:00 +16°C° 0 mm 1 m/s 746 mmHg 61%
03:00 +16°C° 0 mm 1 m/s 746 mmHg 63%
04:00 +16°C° 0 mm 1 m/s 746 mmHg 62%
05:00 +18°C° 0 mm 1 m/s 746 mmHg 61%
06:00 +18°C° 0 mm 1 m/s 747 mmHg 60%
07:00 +20°C° 0 mm 1 m/s 747 mmHg 54%
08:00 +22°C° 0 mm 1 m/s 747 mmHg 48%
09:00 +24°C° 0 mm 1 m/s 747 mmHg 42%
10:00 +25°C° 0 mm 2 m/s 747 mmHg 40%
11:00 +26°C° 0 mm 2 m/s 747 mmHg 37%
12:00 +27°C° 0 mm 3 m/s 747 mmHg 35%
13:00 +25°C° 0.1 mm 3 m/s 747 mmHg 45%
14:00 +22°C° 0.1 mm 3 m/s 747 mmHg 55%
15:00 +20°C° 0.1 mm 3 m/s 747 mmHg 66%
16:00 +20°C° 0 mm 2 m/s 746 mmHg 61%
17:00 +21°C° 0 mm 2 m/s 746 mmHg 57%
18:00 +23°C° 0 mm 1 m/s 746 mmHg 52%
19:00 +22°C° 0 mm 1 m/s 746 mmHg 55%
20:00 +21°C° 0 mm 1 m/s 746 mmHg 59%
21:00 +19°C° 0 mm 2 m/s 746 mmHg 62%
22:00 +18°C° 0 mm 2 m/s 746 mmHg 67%
23:00 +17°C° 0 mm 2 m/s 746 mmHg 72%

6 Agosto, Sexta-feira

Tempo Temperatura Precipitação Vento Pressão Humidade
00:00 +17°C° 0 mm 2 m/s 746 mmHg 77%
01:00 +17°C° 0 mm 2 m/s 746 mmHg 78%
02:00 +17°C° 0 mm 2 m/s 746 mmHg 79%
03:00 +16°C° 0 mm 2 m/s 746 mmHg 81%
04:00 +17°C° 0 mm 2 m/s 746 mmHg 81%
05:00 +17°C° 0 mm 2 m/s 746 mmHg 80%
06:00 +17°C° 0 mm 2 m/s 746 mmHg 80%
07:00 +19°C° 0 mm 2 m/s 746 mmHg 71%
08:00 +20°C° 0 mm 3 m/s 746 mmHg 62%
09:00 +22°C° 0 mm 3 m/s 746 mmHg 53%
10:00 +25°C° 0 mm 3 m/s 746 mmHg 48%
11:00 +27°C° 0 mm 3 m/s 746 mmHg 42%
12:00 +28°C° 0 mm 3 m/s 746 mmHg 37%
13:00 +29°C° 0 mm 3 m/s 745 mmHg 35%
14:00 +30°C° 0 mm 2 m/s 745 mmHg 33%
15:00 +31°C° 0 mm 2 m/s 745 mmHg 32%
16:00 +30°C° 0 mm 2 m/s 745 mmHg 33%
17:00 +30°C° 0 mm 3 m/s 745 mmHg 35%
18:00 +30°C° 0 mm 3 m/s 744 mmHg 36%
19:00 +28°C° 0 mm 4 m/s 744 mmHg 40%
20:00 +26°C° 0 mm 4 m/s 745 mmHg 45%
21:00 +23°C° 0 mm 4 m/s 745 mmHg 49%
22:00 +22°C° 0 mm 4 m/s 745 mmHg 53%
23:00 +21°C° 0 mm 4 m/s 745 mmHg 57%

7 Agosto, Sábado

Tempo Temperatura Precipitação Vento Pressão Humidade
00:00 +20°C° 0 mm 4 m/s 745 mmHg 61%
01:00 +20°C° 0 mm 4 m/s 745 mmHg 63%
02:00 +19°C° 0 mm 4 m/s 745 mmHg 65%
03:00 +19°C° 0 mm 4 m/s 745 mmHg 68%
04:00 +19°C° 0 mm 4 m/s 745 mmHg 68%
05:00 +19°C° 0 mm 4 m/s 746 mmHg 68%
06:00 +19°C° 0 mm 4 m/s 746 mmHg 68%
07:00 +21°C° 0 mm 5 m/s 746 mmHg 60%
08:00 +23°C° 0 mm 5 m/s 746 mmHg 52%
09:00 +27°C° 0 mm 5 m/s 746 mmHg 44%
10:00 +28°C° 0 mm 5 m/s 746 mmHg 39%
11:00 +30°C° 0 mm 5 m/s 746 mmHg 35%
12:00 +33°C° 0 mm 5 m/s 746 mmHg 30%
13:00 +33°C° 0 mm 5 m/s 746 mmHg 29%
14:00 +34°C° 0 mm 5 m/s 746 mmHg 28%
15:00 +34°C° 0 mm 5 m/s 746 mmHg 27%
16:00 +34°C° 0 mm 5 m/s 746 mmHg 28%
17:00 +33°C° 0 mm 5 m/s 746 mmHg 30%
18:00 +32°C° 0 mm 5 m/s 746 mmHg 32%
19:00 +30°C° 0 mm 5 m/s 746 mmHg 36%
20:00 +29°C° 0 mm 5 m/s 746 mmHg 39%
21:00 +27°C° 0 mm 6 m/s 746 mmHg 42%
22:00 +26°C° 0 mm 5 m/s 747 mmHg 43%
23:00 +25°C° 0 mm 5 m/s 747 mmHg 43%
Mostrar mais

Necessitamos do seu Consentimento

A Meteoprog e os seus Fornecedores de Serviços podem armazenar e aceder a dados pessoais como cookies, identificadores do dispositivo ou outras tecnologias semelhantes existentes no seu dispositivo e processar estes dados para personalizar conteúdos e anúncios, assim como funcionalidades nas redes sociais e análise de tráfego.

  • Armazenar e/ou aceder a informações no seu dispositivo

    Os cookies, identificadores do dispositivo ou outras informações podem ser armazenados ou acedidos no seu dispositivo, para os fins acima indicados.

  • Anúncios e conteúdos personalizados, medição de anúncios e conteúdos, dados sobre o público-alvo e desenvolvimento de produtos

    Os anúncios e os conteúdos podem ser personalizados com base num perfil. Podem ser adicionados dados adicionais para uma maior personalização dos anúncios e dos conteúdos. A eficácia dos anúncios e dos conteúdos pode ser medida. Podem ser obtidas informações sobre o público que visualizou os anúncios e os conteúdos. Estes dados podem ser usados para desenvolver ou melhorar sistemas, softwares ou a experiência do utilizador.

Ao clicar em "Eu concordo”, permitirá o uso de cookies, identificadores do dispositivo e web beacons mencionados ou outras tecnologias semelhantes. As configurações do navegador do seu dispositivo podem ser alteradas.

Para certos fins, podem ser invocados interesses legítimos ao invés de consentimento. Pode ler mais informação sobre este assunto na nossa Política de Privacidade e Cookies.